Time,TemperatureF,DewpointF,PressureIn,WindDirection,WindDirectionDegrees,WindSpeedMPH,WindSpeedGustMPH,Humidity,HourlyPrecipIn,Conditions,Clouds,dailyrainin,SoftwareType,DateUTC
2013-09-08 00:12:00,65.0,57.0,-100.00,WNW,289,7.0,10.0,75,-99.99,,,-99.99,,2013-09-08 07:12:00,
2013-09-08 01:11:00,65.0,56.0,-100.00,WNW,286,7.0,9.0,72,-99.99,,,-99.99,,2013-09-08 08:11:00,
2013-09-08 02:11:00,65.0,56.0,-100.00,NW,310,9.0,12.0,72,-99.99,,,-99.99,,2013-09-08 09:11:00,
2013-09-08 03:12:00,63.0,55.0,-100.00,WNW,299,8.0,12.0,75,-99.99,,,-99.99,,2013-09-08 10:12:00,
2013-09-08 04:12:00,61.0,55.0,-100.00,West,262,6.0,8.0,80,-99.99,,,-99.99,,2013-09-08 11:12:00,
2013-09-08 05:12:00,60.0,55.0,-100.00,WNW,298,7.0,9.0,83,-99.99,,,-99.99,,2013-09-08 12:12:00,
2013-09-08 06:11:00,58.0,54.0,-100.00,NW,309,5.0,6.0,86,-99.99,,,-99.99,,2013-09-08 13:11:00,
2013-09-08 07:11:00,57.0,54.0,-100.00,West,269,3.0,3.0,89,-99.99,,,-99.99,,2013-09-08 14:11:00,
2013-09-08 08:12:00,59.0,54.0,-100.00,West,261,3.0,3.0,83,-99.99,,,-99.99,,2013-09-08 15:12:00,
2013-09-08 09:14:00,64.0,55.0,-100.00,NNW,329,5.0,7.0,72,-99.99,,,-99.99,,2013-09-08 16:14:00,
2013-09-08 10:12:00,69.0,55.0,-100.00,West,274,2.0,5.0,60,-99.99,,,-99.99,,2013-09-08 17:12:00,
2013-09-08 11:13:00,71.0,55.0,-100.00,ESE,120,3.0,7.0,56,-99.99,,,-99.99,,2013-09-08 18:13:00,
2013-09-08 12:12:00,73.0,55.0,-100.00,East,94,5.0,9.0,53,-99.99,,,-99.99,,2013-09-08 19:12:00,
2013-09-08 13:11:00,77.0,53.0,-100.00,SSE,167,3.0,8.0,43,-99.99,,,-99.99,,2013-09-08 20:11:00,
2013-09-08 14:12:00,80.0,52.0,-100.00,WSW,241,6.0,12.0,37,-99.99,,,-99.99,,2013-09-08 21:12:00,
2013-09-08 15:13:00,83.0,48.0,-100.00,WNW,286,5.0,10.0,29,-99.99,,,-99.99,,2013-09-08 22:13:00,
2013-09-08 16:12:00,84.0,47.0,-100.00,NE,35,6.0,9.0,27,-99.99,,,-99.99,,2013-09-08 23:12:00,
2013-09-08 17:11:00,86.0,46.0,-100.00,NE,51,5.0,9.0,24,-99.99,,,-99.99,,2013-09-09 00:11:00,
2013-09-08 18:12:00,86.0,46.0,-100.00,SSE,164,5.0,10.0,24,-99.99,,,-99.99,,2013-09-09 01:12:00,
2013-09-08 19:11:00,85.0,46.0,-100.00,SE,143,7.0,12.0,25,-99.99,,,-99.99,,2013-09-09 02:11:00,
2013-09-08 20:12:00,82.0,48.0,-100.00,South,183,9.0,13.0,30,-99.99,,,-99.99,,2013-09-09 03:12:00,
2013-09-08 21:14:00,76.0,52.0,-100.00,SW,214,7.0,10.0,43,-99.99,,,-99.99,,2013-09-09 04:14:00,
2013-09-08 22:13:00,72.0,53.0,-100.00,West,262,3.0,9.0,51,-99.99,,,-99.99,,2013-09-09 05:13:00,
2013-09-08 23:12:00,76.0,52.0,-100.00,West,276,10.0,15.0,43,-99.99,,,-99.99,,2013-09-09 06:12:00,